Погода в Советском

Россия / Белгородская область     50°20′06″N   39°00′52″E
темп.,
°C
ветер,
м/с
пор.,
м/с
влажн.,
%
обл.,
%
осадки,
мм/ч
давл.,
гПа
погр.,
м
12 мая, ср
ср1200:00+8вюв81585100 0.2 10211190
03:00+7всв51090100 0.4 1021527
06:00+7в51290100 0.0 1021551
09:00+10в61177100 0.4 10201129
12:00+14в7106090 0.3 10181679
15:00+13юв7106997 1.5 10171239
18:00+13ююв59765 1.3 1016867
21:00+9вюв358933 1.6 101778
13 мая, чт
чт1300:00+9вюв259180 0.0 1016123
03:00+10всв229086 0.1 101722
06:00+10вюв2693100 0.3 1016206
09:00+15юв597191 0.4 1015608
12:00+20ю685887 0.1 10151589
15:00+21ю575595 0.4 10141862
18:00+19зсз1170100 0.4 101416
21:00+16св3477100 0.4 101557
14 мая, пт
пт1400:00+14вюв2282100 0.0 101515
03:00+14в338874 0.0 101553
06:00+14вюв388972 0.0 1015180
09:00+21юв6106915 0.0 1014617
12:00+24юв795296 0.0 10131100
15:00+25ююв5650100 0.0 10131393
18:00+22в236893 0.0 101229
21:00+19вюв498366 0.0 1012149
15 мая, сб
сб1500:00+17юв37904 0.0 1011115
03:00+16ююв349299 0.0 101174
06:00+17ю3793100 0.7 1011206
09:00+20ююв2379100 2.9 1011262
12:00+22ююз5666100 0.0 1013858
15:00+25ююз355346 0.0 10121414
18:00+23ююз2464100 0.0 1012136
21:00+18зсз22761 0.0 101215
16 мая, вс
вс1600:00+17ссв2275100 0.0 101311
03:00+15всв228331 0.0 101311
06:00+16св228510 0.0 101359
09:00+22св457071 0.0 1013518
12:00+25всв565954 0.0 10121251
15:00+26в5652100 0.0 10111290
18:00+23в3763100 0.0 1011186
21:00+19всв4968100 0.0 1010123